Tracking 25710 objects as of 6-Jul-2022
HD Live streaming from Space Station
objects crossing your sky now

FENGYUN 1C DEB

Track FENGYUN 1C DEB now!
10-day predictions


NORAD ID: 29875
Int'l Code: 1999-025FV
Perigee: 757.6 km
Apogee: 877.8 km
Inclination: 98.6 °
Period: 101.1 minutes
Semi major axis: 7188 km
RCS: 0.0547 m2 (small)
Launch date: May 10, 1999
Source: People's Republic of China (PRC)
Launch site: Taiyaun Space Center, China (TSC)

Note: This is SATELLITE DEBRIS
aabbcc
Your satellite tracking list
Your tracking list is empty




NASA's NSSDC Master Catalog

Two Line Element Set (TLE):
1 29875U 99025FV  22186.52393125  .00000007  00000-0  20422-4 0  9996
2 29875  98.5606 263.6623 0083604 132.3019 355.5751 14.24379666804365
Source of the keplerian elements: AFSPC